Time,TemperatureF,DewpointF,PressureIn,WindDirection,WindDirectionDegrees,WindSpeedMPH,WindSpeedGustMPH,Humidity,HourlyPrecipIn,Conditions,Clouds,dailyrainin,SoftwareType,DateUTC
2013-05-13 00:00:00,48.6,31.8,29.90,WSW,255,1.0,1.0,52,0.00,,,0.02,Wunderground v.1.15,2013-05-13 04:00:00,
2013-05-13 00:08:00,48.3,31.0,29.90,SW,232,0.0,6.0,52,0.00,,,0.00,weatherlink.com 1.10,2013-05-13 04:08:00,
2013-05-13 00:10:00,48.3,31.9,29.90,SW,233,0.0,0.0,53,0.00,,,0.00,Wunderground v.1.15,2013-05-13 04:10:00,
2013-05-13 00:20:00,48.0,31.7,29.90,WSW,249,0.0,1.0,53,0.00,,,0.00,Wunderground v.1.15,2013-05-13 04:20:00,
2013-05-13 00:24:00,47.9,31.0,29.90,WSW,250,0.0,6.0,53,0.00,,,0.00,weatherlink.com 1.10,2013-05-13 04:24:00,
2013-05-13 00:30:00,47.8,31.5,29.91,WNW,284,1.0,1.0,53,0.00,,,0.00,Wunderground v.1.15,2013-05-13 04:30:00,
2013-05-13 00:38:00,47.7,31.0,29.90,SW,234,0.0,7.0,53,0.00,,,0.00,weatherlink.com 1.10,2013-05-13 04:38:00,
2013-05-13 00:50:00,47.6,30.8,29.91,WNW,297,1.0,1.0,52,0.00,,,0.00,Wunderground v.1.15,2013-05-13 04:50:00,
2013-05-13 01:00:00,47.5,30.7,29.91,NW,315,1.0,2.0,52,0.00,,,0.00,Wunderground v.1.15,2013-05-13 05:00:00,
2013-05-13 01:09:00,47.4,31.0,29.91,WSW,257,0.0,8.0,53,0.00,,,0.00,weatherlink.com 1.10,2013-05-13 05:09:00,
2013-05-13 01:20:00,47.4,31.1,29.92,WNW,285,1.0,1.0,53,0.00,,,0.00,Wunderground v.1.15,2013-05-13 05:20:00,
2013-05-13 01:30:00,47.1,30.8,29.92,WNW,290,1.0,1.0,53,0.00,,,0.00,Wunderground v.1.15,2013-05-13 05:30:00,
2013-05-13 01:38:00,46.9,31.0,29.92,West,267,0.0,7.0,54,0.00,,,0.00,weatherlink.com 1.10,2013-05-13 05:38:00,
2013-05-13 01:50:00,46.7,30.9,29.91,WSW,246,1.0,1.0,54,0.00,,,0.00,Wunderground v.1.15,2013-05-13 05:50:00,
2013-05-13 02:00:00,46.5,30.7,29.92,NNW,344,1.0,4.0,54,0.00,,,0.00,Wunderground v.1.15,2013-05-13 06:00:00,
2013-05-13 02:09:00,46.4,30.0,29.91,NW,306,0.0,3.0,54,0.00,,,0.00,weatherlink.com 1.10,2013-05-13 06:09:00,
2013-05-13 02:20:00,46.0,30.7,29.92,NW,307,0.0,0.0,55,0.00,,,0.00,Wunderground v.1.15,2013-05-13 06:20:00,
2013-05-13 02:30:00,45.7,30.9,29.91,WSW,258,0.0,0.0,56,0.00,,,0.00,Wunderground v.1.15,2013-05-13 06:30:00,
2013-05-13 02:40:00,45.4,31.0,29.92,West,269,0.0,0.0,57,0.00,,,0.00,Wunderground v.1.15,2013-05-13 06:40:00,
2013-05-13 02:50:00,44.9,31.0,29.92,West,272,0.0,0.0,58,0.00,,,0.00,Wunderground v.1.15,2013-05-13 06:50:00,
2013-05-13 03:00:00,44.6,31.6,29.92,WNW,289,0.0,0.0,60,0.00,,,0.00,Wunderground v.1.15,2013-05-13 07:00:00,
2013-05-13 03:09:00,44.3,31.0,29.92,WNW,287,0.0,3.0,61,0.00,,,0.00,weatherlink.com 1.10,2013-05-13 07:09:00,
2013-05-13 03:20:00,44.2,31.6,29.92,NW,307,0.0,0.0,61,0.00,,,0.00,Wunderground v.1.15,2013-05-13 07:20:00,
2013-05-13 03:25:00,44.1,31.0,29.92,NW,307,0.0,2.0,61,0.00,,,0.00,weatherlink.com 1.10,2013-05-13 07:25:00,
2013-05-13 03:39:00,43.8,32.0,29.92,NW,307,0.0,1.0,63,0.00,,,0.00,weatherlink.com 1.10,2013-05-13 07:39:00,
2013-05-13 03:50:00,43.4,32.0,29.92,NW,307,0.0,0.0,64,0.00,,,0.00,Wunderground v.1.15,2013-05-13 07:50:00,
2013-05-13 03:55:00,43.3,33.0,29.92,NW,307,0.0,0.0,66,0.00,,,0.00,weatherlink.com 1.10,2013-05-13 07:55:00,
2013-05-13 04:00:00,43.1,32.5,29.92,NW,307,0.0,0.0,66,0.00,,,0.00,Wunderground v.1.15,2013-05-13 08:00:00,
2013-05-13 04:10:00,42.8,32.2,29.93,NW,307,0.0,0.0,66,0.00,,,0.00,Wunderground v.1.15,2013-05-13 08:10:00,
2013-05-13 04:20:00,42.4,33.3,29.93,NW,307,0.0,0.0,70,0.00,,,0.00,Wunderground v.1.15,2013-05-13 08:20:00,
2013-05-13 04:26:00,42.1,33.0,29.93,NW,307,0.0,0.0,70,0.00,,,0.00,weatherlink.com 1.10,2013-05-13 08:26:00,
2013-05-13 04:40:00,41.4,33.0,29.94,NW,307,0.0,0.0,72,0.00,,,0.00,Wunderground v.1.15,2013-05-13 08:40:00,
2013-05-13 04:50:00,41.0,33.7,29.93,NW,307,0.0,0.0,75,0.00,,,0.00,Wunderground v.1.15,2013-05-13 08:50:00,
2013-05-13 04:56:00,40.7,34.0,29.93,NW,307,0.0,0.0,76,0.00,,,0.00,weatherlink.com 1.10,2013-05-13 08:56:00,
2013-05-13 05:10:00,40.0,33.4,29.94,NW,307,0.0,0.0,77,0.00,,,0.00,Wunderground v.1.15,2013-05-13 09:10:00,
2013-05-13 05:20:00,39.5,32.9,29.95,NW,307,0.0,0.0,77,0.00,,,0.00,Wunderground v.1.15,2013-05-13 09:20:00,
2013-05-13 05:25:00,39.3,33.0,29.95,NW,307,0.0,0.0,79,0.00,,,0.00,weatherlink.com 1.10,2013-05-13 09:25:00,
2013-05-13 05:40:00,38.7,33.4,29.96,NW,307,0.0,0.0,81,0.00,,,0.00,Wunderground v.1.15,2013-05-13 09:40:00,
2013-05-13 05:50:00,38.5,33.5,29.96,NW,307,0.0,0.0,82,0.00,,,0.00,Wunderground v.1.15,2013-05-13 09:50:00,
2013-05-13 05:56:00,38.5,33.0,29.97,NW,307,0.0,0.0,82,0.00,,,0.00,weatherlink.com 1.10,2013-05-13 09:56:00,
2013-05-13 06:10:00,38.6,33.6,29.97,NW,307,0.0,0.0,82,0.00,,,0.00,Wunderground v.1.15,2013-05-13 10:10:00,
2013-05-13 06:20:00,38.7,34.0,29.96,NW,307,0.0,0.0,83,0.00,,,0.00,Wunderground v.1.15,2013-05-13 10:20:00,
2013-05-13 06:27:00,38.9,34.0,29.96,NW,307,0.0,0.0,83,0.00,,,0.00,weatherlink.com 1.10,2013-05-13 10:27:00,
2013-05-13 06:40:00,39.1,34.4,29.97,NW,307,0.0,0.0,83,0.00,,,0.00,Wunderground v.1.15,2013-05-13 10:40:00,
2013-05-13 06:50:00,39.4,34.7,29.97,NW,307,0.0,0.0,83,0.00,,,0.00,Wunderground v.1.15,2013-05-13 10:50:00,
2013-05-13 06:56:00,39.7,34.0,29.97,NW,307,0.0,2.0,81,0.00,,,0.00,weatherlink.com 1.10,2013-05-13 10:56:00,
2013-05-13 07:10:00,40.5,34.8,29.98,NW,307,0.0,0.0,80,0.00,,,0.00,Wunderground v.1.15,2013-05-13 11:10:00,
2013-05-13 07:20:00,41.4,34.7,29.99,NW,311,0.0,0.0,77,0.00,,,0.00,Wunderground v.1.15,2013-05-13 11:20:00,
2013-05-13 07:27:00,42.0,35.0,29.98,NW,311,0.0,1.0,76,0.00,,,0.00,weatherlink.com 1.10,2013-05-13 11:27:00,
2013-05-13 07:40:00,43.2,35.1,29.99,WNW,294,0.0,3.0,73,0.00,,,0.00,Wunderground v.1.15,2013-05-13 11:40:00,
2013-05-13 07:50:00,44.2,34.3,29.98,NW,306,0.0,0.0,68,0.00,,,0.00,Wunderground v.1.15,2013-05-13 11:50:00,
2013-05-13 07:57:00,44.7,34.0,29.99,NW,312,1.0,9.0,66,0.00,,,0.00,weatherlink.com 1.10,2013-05-13 11:57:00,
2013-05-13 08:10:00,45.2,32.5,29.99,WNW,286,1.0,1.0,61,0.00,,,0.00,Wunderground v.1.15,2013-05-13 12:10:00,
2013-05-13 08:20:00,45.5,30.7,29.99,NNW,338,2.0,3.0,56,0.00,,,0.00,Wunderground v.1.15,2013-05-13 12:20:00,
2013-05-13 08:27:00,45.7,31.0,30.00,WNW,296,0.0,8.0,57,0.00,,,0.00,weatherlink.com 1.10,2013-05-13 12:27:00,
2013-05-13 08:40:00,46.1,29.9,30.00,WSW,255,3.0,4.0,53,0.00,,,0.00,Wunderground v.1.15,2013-05-13 12:40:00,
2013-05-13 08:50:00,46.2,29.5,30.00,NW,318,3.0,5.0,52,0.00,,,0.00,Wunderground v.1.15,2013-05-13 12:50:00,
2013-05-13 08:58:00,46.3,29.0,30.00,North,360,5.0,11.0,52,0.00,,,0.00,weatherlink.com 1.10,2013-05-13 12:58:00,
2013-05-13 09:10:00,46.9,30.6,30.01,West,261,1.0,4.0,53,0.00,,,0.00,Wunderground v.1.15,2013-05-13 13:10:00,
2013-05-13 09:20:00,47.3,30.1,30.01,NW,319,1.0,2.0,51,0.00,,,0.00,Wunderground v.1.15,2013-05-13 13:20:00,
2013-05-13 09:28:00,47.3,29.0,30.01,NW,315,4.0,10.0,49,0.00,,,0.00,weatherlink.com 1.10,2013-05-13 13:28:00,
2013-05-13 09:40:00,47.5,28.8,30.01,NW,309,2.0,4.0,48,0.00,,,0.00,Wunderground v.1.15,2013-05-13 13:40:00,
2013-05-13 09:50:00,47.8,30.5,30.01,West,276,2.0,2.0,51,0.00,,,0.00,Wunderground v.1.15,2013-05-13 13:50:00,
2013-05-13 09:58:00,48.2,29.0,30.01,WNW,288,5.0,10.0,48,0.00,,,0.00,weatherlink.com 1.10,2013-05-13 13:58:00,
2013-05-13 10:10:00,48.2,28.9,30.00,WNW,296,2.0,2.0,47,0.00,,,0.00,Wunderground v.1.15,2013-05-13 14:10:00,
2013-05-13 10:20:00,48.4,29.1,30.00,NW,315,1.0,1.0,47,0.00,,,0.00,Wunderground v.1.15,2013-05-13 14:20:00,
2013-05-13 10:28:00,48.1,28.0,30.00,West,264,0.0,7.0,46,0.00,,,0.00,weatherlink.com 1.10,2013-05-13 14:28:00,
2013-05-13 10:40:00,48.8,28.9,30.00,NW,308,2.0,2.0,46,0.00,,,0.00,Wunderground v.1.15,2013-05-13 14:40:00,
2013-05-13 10:50:00,49.0,29.6,30.00,South,180,1.0,1.0,47,0.00,,,0.00,Wunderground v.1.15,2013-05-13 14:50:00,
2013-05-13 10:58:00,49.6,29.0,30.00,West,267,0.0,10.0,46,0.00,,,0.00,weatherlink.com 1.10,2013-05-13 14:58:00,
2013-05-13 11:10:00,50.3,28.6,30.00,NW,308,2.0,2.0,43,0.00,,,0.00,Wunderground v.1.15,2013-05-13 15:10:00,
2013-05-13 11:20:00,49.9,29.4,30.00,WSW,241,2.0,2.0,45,0.00,,,0.00,Wunderground v.1.15,2013-05-13 15:20:00,
2013-05-13 11:29:00,50.5,30.0,30.01,NNW,336,2.0,10.0,46,0.00,,,0.00,weatherlink.com 1.10,2013-05-13 15:29:00,
2013-05-13 11:40:00,50.8,31.3,30.01,WNW,287,1.0,4.0,47,0.00,,,0.00,Wunderground v.1.15,2013-05-13 15:40:00,
2013-05-13 11:50:00,50.6,30.6,30.01,WNW,298,3.0,3.0,46,0.00,,,0.00,Wunderground v.1.15,2013-05-13 15:50:00,
2013-05-13 11:59:00,51.4,29.0,30.01,WSW,244,0.0,9.0,43,0.00,,,0.00,weatherlink.com 1.10,2013-05-13 15:59:00,
2013-05-13 12:10:00,51.6,30.4,30.01,West,273,3.0,3.0,44,0.00,,,0.00,Wunderground v.1.15,2013-05-13 16:10:00,
2013-05-13 12:20:00,52.0,30.7,30.00,West,269,2.0,2.0,44,0.00,,,0.00,Wunderground v.1.15,2013-05-13 16:20:00,
2013-05-13 12:28:00,52.9,31.0,30.00,West,265,2.0,8.0,43,0.00,,,0.00,weatherlink.com 1.10,2013-05-13 16:28:00,
2013-05-13 12:40:00,53.5,30.4,30.00,West,281,2.0,2.0,41,0.00,,,0.00,Wunderground v.1.15,2013-05-13 16:40:00,
2013-05-13 12:50:00,53.6,29.8,30.00,NW,312,2.0,2.0,40,0.00,,,0.00,Wunderground v.1.15,2013-05-13 16:50:00,
2013-05-13 12:59:00,53.7,28.0,30.00,WNW,286,4.0,10.0,38,0.00,,,0.00,weatherlink.com 1.10,2013-05-13 16:59:00,
2013-05-13 13:10:00,53.1,28.8,29.99,West,281,1.0,1.0,39,0.00,,,0.00,Wunderground v.1.15,2013-05-13 17:10:00,
2013-05-13 13:20:00,54.4,29.9,30.00,North,355,2.0,2.0,39,0.00,,,0.00,Wunderground v.1.15,2013-05-13 17:20:00,
2013-05-13 13:30:00,54.6,28.8,30.00,NW,305,2.0,4.0,37,0.00,,,0.00,Wunderground v.1.15,2013-05-13 17:30:00,
2013-05-13 13:40:00,52.5,28.8,29.99,North,355,3.0,3.0,40,0.00,,,0.00,Wunderground v.1.15,2013-05-13 17:40:00,
2013-05-13 13:50:00,52.0,29.0,29.99,NW,321,2.0,2.0,41,0.00,,,0.00,Wunderground v.1.15,2013-05-13 17:50:00,
2013-05-13 14:00:00,51.9,28.3,29.99,West,280,2.0,2.0,40,0.00,,,0.00,Wunderground v.1.15,2013-05-13 18:00:00,
2013-05-13 14:10:00,52.7,28.4,29.99,WSW,240,2.0,2.0,39,0.00,,,0.00,Wunderground v.1.15,2013-05-13 18:10:00,
2013-05-13 14:15:00,53.3,28.0,29.99,NW,321,3.0,13.0,38,0.00,,,0.00,weatherlink.com 1.10,2013-05-13 18:15:00,
2013-05-13 14:29:00,53.4,28.0,29.99,NW,319,5.0,10.0,37,0.00,,,0.00,weatherlink.com 1.10,2013-05-13 18:29:00,
2013-05-13 14:40:00,52.6,28.3,29.99,North,9,2.0,2.0,39,0.00,,,0.00,Wunderground v.1.15,2013-05-13 18:40:00,
2013-05-13 14:45:00,52.2,29.0,29.99,SSW,202,0.0,7.0,41,0.00,,,0.00,weatherlink.com 1.10,2013-05-13 18:45:00,
2013-05-13 15:00:00,51.4,29.1,29.99,North,10,2.0,2.0,42,0.00,,,0.00,Wunderground v.1.15,2013-05-13 19:00:00,
2013-05-13 15:10:00,51.0,30.4,29.99,NW,311,2.0,2.0,45,0.00,,,0.00,Wunderground v.1.15,2013-05-13 19:10:00,
2013-05-13 15:17:00,50.8,29.0,29.99,West,272,1.0,8.0,44,0.00,,,0.00,weatherlink.com 1.10,2013-05-13 19:17:00,
2013-05-13 15:30:00,50.8,30.2,30.00,NW,325,2.0,5.0,45,0.00,,,0.00,Wunderground v.1.15,2013-05-13 19:30:00,
2013-05-13 15:40:00,51.1,28.8,29.99,SW,234,3.0,3.0,42,0.00,,,0.00,Wunderground v.1.15,2013-05-13 19:40:00,
2013-05-13 15:45:00,51.7,29.0,29.99,NNW,332,5.0,12.0,42,0.00,,,0.00,weatherlink.com 1.10,2013-05-13 19:45:00,
2013-05-13 16:00:00,52.6,28.9,29.99,North,355,2.0,3.0,40,0.00,,,0.00,Wunderground v.1.15,2013-05-13 20:00:00,
2013-05-13 16:10:00,53.1,29.4,29.99,West,269,2.0,3.0,40,0.00,,,0.00,Wunderground v.1.15,2013-05-13 20:10:00,
2013-05-13 16:15:00,52.9,30.0,29.99,WNW,296,1.0,9.0,41,0.00,,,0.00,weatherlink.com 1.10,2013-05-13 20:15:00,
2013-05-13 16:30:00,52.2,27.3,29.99,West,281,1.0,1.0,38,0.00,,,0.00,Wunderground v.1.15,2013-05-13 20:30:00,
2013-05-13 16:40:00,53.2,27.6,29.99,NW,308,2.0,2.0,37,0.00,,,0.00,Wunderground v.1.15,2013-05-13 20:40:00,
2013-05-13 16:45:00,53.0,28.0,29.98,ENE,57,1.0,6.0,38,0.00,,,0.00,weatherlink.com 1.10,2013-05-13 20:45:00,
2013-05-13 17:00:00,52.4,28.1,29.98,NW,317,1.0,6.0,39,0.00,,,0.00,Wunderground v.1.15,2013-05-13 21:00:00,
2013-05-13 17:10:00,53.1,27.5,29.98,North,355,2.0,2.0,37,0.00,,,0.00,Wunderground v.1.15,2013-05-13 21:10:00,
2013-05-13 17:17:00,53.0,27.0,29.98,NW,311,1.0,9.0,37,0.00,,,0.00,weatherlink.com 1.10,2013-05-13 21:17:00,
2013-05-13 17:30:00,53.2,28.2,29.98,WSW,245,2.0,2.0,38,0.00,,,0.00,Wunderground v.1.15,2013-05-13 21:30:00,
2013-05-13 17:40:00,53.5,28.5,29.98,NW,319,2.0,2.0,38,0.00,,,0.00,Wunderground v.1.15,2013-05-13 21:40:00,
2013-05-13 17:47:00,52.8,27.0,29.98,WNW,294,1.0,10.0,37,0.00,,,0.00,weatherlink.com 1.10,2013-05-13 21:47:00,
2013-05-13 18:00:00,52.5,28.8,29.98,West,277,1.0,2.0,40,0.00,,,0.00,Wunderground v.1.15,2013-05-13 22:00:00,
2013-05-13 18:10:00,53.1,29.4,29.98,NNE,16,1.0,4.0,40,0.00,,,0.00,Wunderground v.1.15,2013-05-13 22:10:00,
2013-05-13 18:17:00,52.5,28.0,29.98,North,5,4.0,6.0,39,0.00,,,0.00,weatherlink.com 1.10,2013-05-13 22:17:00,
2013-05-13 18:30:00,51.1,28.8,29.99,North,10,1.0,1.0,42,0.00,,,0.00,Wunderground v.1.15,2013-05-13 22:30:00,
2013-05-13 18:40:00,50.6,29.5,29.99,NW,314,1.0,1.0,44,0.00,,,0.00,Wunderground v.1.15,2013-05-13 22:40:00,
2013-05-13 18:46:00,50.5,29.0,29.99,West,271,0.0,8.0,44,0.00,,,0.00,weatherlink.com 1.10,2013-05-13 22:46:00,
2013-05-13 19:00:00,50.5,29.4,30.00,NNE,13,1.0,1.0,44,0.00,,,0.00,Wunderground v.1.15,2013-05-13 23:00:00,
2013-05-13 19:10:00,50.0,31.6,30.00,NW,323,3.0,3.0,49,0.00,,,0.00,Wunderground v.1.15,2013-05-13 23:10:00,
2013-05-13 19:16:00,49.6,31.0,30.00,West,275,2.0,8.0,50,0.00,,,0.00,weatherlink.com 1.10,2013-05-13 23:16:00,
2013-05-13 19:30:00,49.3,32.4,30.01,WNW,289,1.0,1.0,52,0.00,,,0.00,Wunderground v.1.15,2013-05-13 23:30:00,
2013-05-13 19:40:00,48.9,32.5,30.01,WNW,294,0.0,0.0,53,0.00,,,0.00,Wunderground v.1.15,2013-05-13 23:40:00,
2013-05-13 19:48:00,48.5,32.0,30.02,WNW,284,0.0,5.0,54,0.00,,,0.00,weatherlink.com 1.10,2013-05-13 23:48:00,
2013-05-13 20:00:00,47.9,32.9,30.02,WNW,284,0.0,1.0,56,0.00,,,0.00,Wunderground v.1.15,2013-05-14 00:00:00,
2013-05-13 20:10:00,47.4,32.0,30.02,WNW,284,0.0,0.0,55,0.00,,,0.00,Wunderground v.1.15,2013-05-14 00:10:00,
2013-05-13 20:17:00,47.0,32.0,30.03,WNW,284,0.0,1.0,56,0.00,,,0.00,weatherlink.com 1.10,2013-05-14 00:17:00,
2013-05-13 20:30:00,46.5,31.6,30.03,WNW,284,0.0,0.0,56,0.00,,,0.00,Wunderground v.1.15,2013-05-14 00:30:00,
2013-05-13 20:40:00,46.2,31.8,30.03,WNW,284,0.0,0.0,57,0.00,,,0.00,Wunderground v.1.15,2013-05-14 00:40:00,
2013-05-13 20:47:00,46.0,32.0,30.04,WNW,284,0.0,0.0,58,0.00,,,0.00,weatherlink.com 1.10,2013-05-14 00:47:00,
2013-05-13 21:00:00,45.5,32.4,30.05,WNW,284,0.0,0.0,60,0.00,,,0.00,Wunderground v.1.15,2013-05-14 01:00:00,
2013-05-13 21:10:00,45.1,32.4,30.05,WNW,284,0.0,0.0,61,0.00,,,0.00,Wunderground v.1.15,2013-05-14 01:10:00,
2013-05-13 21:17:00,45.0,33.0,30.05,WNW,284,0.0,0.0,62,0.00,,,0.00,weatherlink.com 1.10,2013-05-14 01:17:00,
2013-05-13 21:30:00,44.7,32.9,30.06,WNW,284,0.0,0.0,63,0.00,,,0.00,Wunderground v.1.15,2013-05-14 01:30:00,
2013-05-13 21:40:00,44.7,33.3,30.06,WNW,284,0.0,0.0,64,0.00,,,0.00,Wunderground v.1.15,2013-05-14 01:40:00,
2013-05-13 21:48:00,44.7,33.0,30.07,WNW,284,0.0,2.0,63,0.00,,,0.00,weatherlink.com 1.10,2013-05-14 01:48:00,
2013-05-13 22:00:00,44.3,33.3,30.07,WNW,284,0.0,0.0,65,0.00,,,0.00,Wunderground v.1.15,2013-05-14 02:00:00,
2013-05-13 22:10:00,43.9,33.6,30.07,WNW,284,0.0,0.0,67,0.00,,,0.00,Wunderground v.1.15,2013-05-14 02:10:00,
2013-05-13 22:18:00,43.5,34.0,30.08,WNW,284,0.0,2.0,68,0.00,,,0.00,weatherlink.com 1.10,2013-05-14 02:18:00,
2013-05-13 22:30:00,43.3,34.2,30.08,WNW,284,0.0,0.0,70,0.00,,,0.00,Wunderground v.1.15,2013-05-14 02:30:00,
2013-05-13 22:40:00,43.2,34.4,30.08,WNW,284,0.0,0.0,71,0.00,,,0.00,Wunderground v.1.15,2013-05-14 02:40:00,
2013-05-13 22:49:00,43.1,34.0,30.08,WNW,284,0.0,3.0,71,0.00,,,0.00,weatherlink.com 1.10,2013-05-14 02:49:00,
2013-05-13 23:00:00,42.9,34.8,30.08,WNW,284,0.0,0.0,73,0.00,,,0.00,Wunderground v.1.15,2013-05-14 03:00:00,
2013-05-13 23:10:00,42.6,34.9,30.08,WNW,284,0.0,0.0,74,0.00,,,0.00,Wunderground v.1.15,2013-05-14 03:10:00,
2013-05-13 23:19:00,42.3,35.0,30.08,WNW,284,0.0,1.0,75,0.00,,,0.00,weatherlink.com 1.10,2013-05-14 03:19:00,
2013-05-13 23:30:00,42.1,35.1,30.08,WNW,284,0.0,0.0,76,0.00,,,0.00,Wunderground v.1.15,2013-05-14 03:30:00,
2013-05-13 23:40:00,41.9,34.9,30.09,WNW,284,0.0,0.0,76,0.00,,,0.00,Wunderground v.1.15,2013-05-14 03:40:00,
2013-05-13 23:48:00,41.7,35.0,30.09,WNW,284,0.0,1.0,77,0.00,,,0.00,weatherlink.com 1.10,2013-05-14 03:48:00,